Starlink 3843

operational
NORAD ID: 52341 Int'l Des: 2022-045 Owner: SPXS Country: US Constellation: starlink
LEOCIRCULAR

关于 Starlink 3843

正在加载描述...

实时位置

正在加载3D地球...

即将过境

高度历史

Altitude vs Time

uPlot chart will show altitude changes over time

两行轨道根数

1 52341U 22045L 26073.72592494 .00000598 00000-0 55671-4 0 9998
2 52341 53.2171 186.4636 0001150 87.0026 273.1097 15.08840426216400
Epoch: Mar 14, 2026 • Age: 16 hours

当前状态

高度 547.0 km
速度 7.59 km/s
星下点 -23.89°S, 146.5°W
发射日期 Apr 29, 2022
运行时间 3.8 years
类型 internet

技术详情

分类 Payload
质量 297.00 kg
干质量 275.00 kg
总质量 297.00 kg
长度 0.20 m
直径 2.80 m
跨度 9.00 m
形状 Box + pan
制造商 SPXS
平台类型 Starlink
阶段状态 In Orbit
所有者/国家 SPXS/US

大型星座

Loading constellations...